GSAT0216 (GALILEO 20)

Last updated on Fri Jun 19 2026 17:09:21 GMT+0000 (Coordinated Universal Time)

1 43056U 17079B 26168.89331476 .00000034 00000+0 00000+0 0 9991 2 43056 55.0732 221.4873 0004317 276.2784 83.7610 1.70474666 53015
UTC large
Height (km)
Speed (km/s)
/
Latitude / Longitude
Inclination (degrees)
Orbital Period (minutes)
Azimuth
Elevation
Range (km)
Doppler Factor

Next 0 passes for location: London (51.5072 / 0.1276)

No passes found over London.
GSAT0216 (GALILEO 20)